When you browse on this site, cookies collect data to enhance your experience and personalize the content and advertising you see.
Visit our Privacy Policy to learn more. By continuing to use the site, you agree to this use of cookies and data.
  • In Netherlands
  • List of Countries
  • For 7 days
  • Water Temperature
  • Satellite Maps
  • Weather Map
  • Weather Widgets
  • user-avatar
    Login

    Hourly Weather Maun

    Today, 21 May, Tuesday

    Time Temperature Precipitation Wind Pressure Humidity
    00:00 +18°C° 0 mm 2 mps 682 mmHg 30%
    01:00 +19°C° 0 mm 1 mps 682 mmHg 31%
    02:00 +18°C° 0 mm 1 mps 682 mmHg 32%
    03:00 +18°C° 0 mm 1 mps 682 mmHg 33%
    04:00 +16°C° 0 mm 1 mps 682 mmHg 34%
    05:00 +16°C° 0 mm 1 mps 682 mmHg 35%
    06:00 +16°C° 0 mm 2 mps 682 mmHg 34%
    07:00 +17°C° 0 mm 2 mps 683 mmHg 33%
    08:00 +18°C° 0 mm 3 mps 684 mmHg 31%
    09:00 +22°C° 0 mm 3 mps 684 mmHg 26%
    10:00 +26°C° 0 mm 3 mps 685 mmHg 21%
    11:00 +29°C° 0 mm 3 mps 685 mmHg 17%
    12:00 +30°C° 0 mm 3 mps 685 mmHg 15%
    13:00 +31°C° 0 mm 3 mps 684 mmHg 13%
    14:00 +33°C° 0 mm 3 mps 684 mmHg 10%
    15:00 +31°C° 0 mm 3 mps 684 mmHg 11%
    16:00 +31°C° 0 mm 3 mps 683 mmHg 11%
    17:00 +30°C° 0 mm 3 mps 683 mmHg 12%
    18:00 +27°C° 0 mm 3 mps 683 mmHg 15%
    19:00 +25°C° 0 mm 3 mps 682 mmHg 18%
    20:00 +21°C° 0 mm 3 mps 682 mmHg 20%
    21:00 +20°C° 0 mm 3 mps 682 mmHg 21%
    22:00 +19°C° 0 mm 2 mps 683 mmHg 22%
    23:00 +18°C° 0 mm 2 mps 683 mmHg 23%

    Tomorrow, 22 May, Wednesday

    Time Temperature Precipitation Wind Pressure Humidity
    00:00 +18°C° 0 mm 2 mps 683 mmHg 23%
    01:00 +18°C° 0 mm 2 mps 683 mmHg 24%
    02:00 +17°C° 0 mm 2 mps 683 mmHg 24%
    03:00 +17°C° 0 mm 2 mps 682 mmHg 26%
    04:00 +16°C° 0 mm 2 mps 682 mmHg 27%
    05:00 +15°C° 0 mm 2 mps 682 mmHg 28%
    06:00 +16°C° 0 mm 2 mps 683 mmHg 28%
    07:00 +16°C° 0 mm 2 mps 683 mmHg 27%
    08:00 +17°C° 0 mm 2 mps 684 mmHg 27%
    09:00 +20°C° 0 mm 3 mps 685 mmHg 23%
    10:00 +25°C° 0 mm 3 mps 685 mmHg 20%
    11:00 +28°C° 0 mm 3 mps 686 mmHg 16%
    12:00 +29°C° 0 mm 3 mps 685 mmHg 15%
    13:00 +31°C° 0 mm 3 mps 685 mmHg 14%
    14:00 +33°C° 0 mm 3 mps 684 mmHg 13%
    15:00 +31°C° 0 mm 2 mps 684 mmHg 14%
    16:00 +31°C° 0 mm 2 mps 683 mmHg 14%
    17:00 +31°C° 0 mm 2 mps 683 mmHg 14%
    18:00 +28°C° 0 mm 2 mps 683 mmHg 17%
    19:00 +25°C° 0 mm 2 mps 683 mmHg 19%
    20:00 +22°C° 0 mm 3 mps 683 mmHg 22%
    21:00 +21°C° 0 mm 3 mps 683 mmHg 23%
    22:00 +21°C° 0 mm 3 mps 683 mmHg 23%
    23:00 +20°C° 0 mm 3 mps 683 mmHg 24%

    Day after tomorrow, 23 May, Thursday

    Time Temperature Precipitation Wind Pressure Humidity
    00:00 +20°C° 0 mm 3 mps 683 mmHg 25%
    01:00 +20°C° 0 mm 3 mps 683 mmHg 27%
    02:00 +20°C° 0 mm 4 mps 683 mmHg 29%
    03:00 +19°C° 0 mm 3 mps 683 mmHg 36%
    04:00 +18°C° 0 mm 3 mps 683 mmHg 44%
    05:00 +17°C° 0 mm 3 mps 683 mmHg 51%
    06:00 +17°C° 0 mm 3 mps 683 mmHg 47%
    07:00 +17°C° 0 mm 3 mps 683 mmHg 43%
    08:00 +18°C° 0 mm 3 mps 684 mmHg 39%
    09:00 +21°C° 0 mm 4 mps 684 mmHg 35%
    10:00 +25°C° 0 mm 4 mps 685 mmHg 30%
    11:00 +28°C° 0 mm 4 mps 686 mmHg 26%
    12:00 +29°C° 0 mm 3 mps 685 mmHg 23%
    13:00 +30°C° 0 mm 3 mps 685 mmHg 20%
    14:00 +32°C° 0 mm 2 mps 684 mmHg 17%
    15:00 +31°C° 0 mm 2 mps 684 mmHg 18%
    16:00 +31°C° 0 mm 2 mps 683 mmHg 18%
    17:00 +30°C° 0 mm 2 mps 683 mmHg 19%
    18:00 +28°C° 0 mm 2 mps 683 mmHg 21%
    19:00 +26°C° 0 mm 3 mps 683 mmHg 23%
    20:00 +25°C° 0 mm 3 mps 684 mmHg 25%
    21:00 +24°C° 0 mm 3 mps 684 mmHg 26%
    22:00 +22°C° 0 mm 3 mps 684 mmHg 27%
    23:00 +21°C° 0 mm 3 mps 684 mmHg 28%

    24 May, Friday

    Time Temperature Precipitation Wind Pressure Humidity
    00:00 +21°C° 0 mm 3 mps 684 mmHg 29%
    01:00 +20°C° 0 mm 3 mps 684 mmHg 31%
    02:00 +19°C° 0 mm 3 mps 684 mmHg 32%
    03:00 +19°C° 0 mm 3 mps 684 mmHg 37%
    04:00 +18°C° 0 mm 3 mps 684 mmHg 43%
    05:00 +17°C° 0 mm 2 mps 683 mmHg 48%
    06:00 +18°C° 0 mm 3 mps 684 mmHg 48%
    07:00 +18°C° 0 mm 3 mps 684 mmHg 48%
    08:00 +19°C° 0 mm 4 mps 685 mmHg 48%
    09:00 +21°C° 0 mm 4 mps 686 mmHg 42%
    10:00 +25°C° 0 mm 4 mps 686 mmHg 35%
    11:00 +28°C° 0 mm 4 mps 687 mmHg 28%
    12:00 +29°C° 0 mm 3 mps 686 mmHg 25%
    13:00 +30°C° 0 mm 3 mps 686 mmHg 21%
    14:00 +31°C° 0 mm 3 mps 685 mmHg 18%
    15:00 +30°C° 0 mm 3 mps 685 mmHg 19%
    16:00 +30°C° 0 mm 3 mps 684 mmHg 20%
    17:00 +29°C° 0 mm 4 mps 684 mmHg 21%
    18:00 +27°C° 0 mm 4 mps 684 mmHg 26%
    19:00 +25°C° 0 mm 4 mps 684 mmHg 30%
    20:00 +22°C° 0 mm 3 mps 685 mmHg 34%
    21:00 +21°C° 0 mm 3 mps 685 mmHg 36%
    22:00 +20°C° 0 mm 3 mps 685 mmHg 38%
    23:00 +20°C° 0 mm 2 mps 685 mmHg 39%

    25 May, Saturday

    Time Temperature Precipitation Wind Pressure Humidity
    00:00 +19°C° 0 mm 3 mps 685 mmHg 45%
    01:00 +19°C° 0 mm 3 mps 685 mmHg 50%
    02:00 +19°C° 0 mm 3 mps 685 mmHg 55%
    03:00 +18°C° 0 mm 3 mps 685 mmHg 60%
    04:00 +18°C° 0 mm 3 mps 685 mmHg 64%
    05:00 +17°C° 0 mm 3 mps 685 mmHg 69%
    06:00 +17°C° 0 mm 4 mps 685 mmHg 68%
    07:00 +18°C° 0 mm 4 mps 686 mmHg 67%
    08:00 +18°C° 0 mm 4 mps 686 mmHg 66%
    09:00 +21°C° 0 mm 4 mps 687 mmHg 57%
    10:00 +23°C° 0 mm 4 mps 687 mmHg 47%
    11:00 +27°C° 0 mm 4 mps 688 mmHg 38%
    12:00 +28°C° 0 mm 4 mps 687 mmHg 33%
    13:00 +29°C° 0 mm 3 mps 686 mmHg 29%
    14:00 +30°C° 0 mm 3 mps 685 mmHg 24%
    15:00 +29°C° 0 mm 3 mps 685 mmHg 25%
    16:00 +29°C° 0 mm 4 mps 685 mmHg 25%
    17:00 +28°C° 0 mm 4 mps 684 mmHg 25%
    18:00 +26°C° 0 mm 4 mps 684 mmHg 29%
    19:00 +23°C° 0 mm 4 mps 685 mmHg 33%
    20:00 +21°C° 0 mm 3 mps 685 mmHg 36%
    21:00 +20°C° 0 mm 3 mps 685 mmHg 38%
    22:00 +19°C° 0 mm 3 mps 685 mmHg 39%
    23:00 +18°C° 0 mm 2 mps 685 mmHg 41%

    26 May, Sunday

    Time Temperature Precipitation Wind Pressure Humidity
    00:00 +18°C° 0 mm 3 mps 685 mmHg 44%
    01:00 +18°C° 0 mm 3 mps 684 mmHg 46%
    02:00 +18°C° 0 mm 3 mps 684 mmHg 49%
    03:00 +17°C° 0 mm 3 mps 684 mmHg 52%
    04:00 +16°C° 0 mm 3 mps 684 mmHg 55%
    05:00 +16°C° 0 mm 3 mps 684 mmHg 58%
    06:00 +16°C° 0 mm 3 mps 685 mmHg 56%
    07:00 +17°C° 0 mm 3 mps 685 mmHg 55%
    08:00 +17°C° 0 mm 4 mps 686 mmHg 54%
    09:00 +20°C° 0 mm 4 mps 686 mmHg 47%
    10:00 +23°C° 0 mm 4 mps 687 mmHg 40%
    11:00 +27°C° 0 mm 4 mps 687 mmHg 33%
    12:00 +27°C° 0 mm 4 mps 686 mmHg 29%
    13:00 +28°C° 0 mm 3 mps 685 mmHg 25%
    14:00 +29°C° 0 mm 3 mps 685 mmHg 21%
    15:00 +29°C° 0 mm 3 mps 684 mmHg 20%
    16:00 +28°C° 0 mm 4 mps 684 mmHg 19%
    17:00 +28°C° 0 mm 4 mps 684 mmHg 18%
    18:00 +25°C° 0 mm 4 mps 684 mmHg 19%
    19:00 +22°C° 0 mm 3 mps 684 mmHg 20%
    20:00 +20°C° 0 mm 3 mps 684 mmHg 21%
    21:00 +19°C° 0 mm 3 mps 684 mmHg 23%
    22:00 +18°C° 0 mm 2 mps 684 mmHg 24%
    23:00 +18°C° 0 mm 2 mps 684 mmHg 26%
    Show more